• In Lithuania
  • List of Countries
  • For 7 days
  • Water Temperature
  • Satellite Maps
  • Weather Map
  • Weather Widgets
  • user-avatar
    Login

    Hourly Weather Natal

    Today, 20 January, Saturday

    Time Temperature Precipitation Wind Pressure Humidity
    00:00 +27°C° 0.7 mm 4 mps 759 mmHg 83%
    01:00 +27°C° 0.7 mm 4 mps 759 mmHg 84%
    02:00 +27°C° 0.4 mm 4 mps 759 mmHg 85%
    03:00 +27°C° 0.4 mm 4 mps 758 mmHg 86%
    04:00 +26°C° 0.4 mm 3 mps 758 mmHg 87%
    05:00 +26°C° 0.5 mm 4 mps 758 mmHg 86%
    06:00 +27°C° 0.5 mm 4 mps 758 mmHg 86%
    07:00 +27°C° 0.5 mm 4 mps 759 mmHg 86%
    08:00 +28°C° 0.4 mm 4 mps 759 mmHg 78%
    09:00 +30°C° 0.4 mm 5 mps 759 mmHg 71%
    10:00 +32°C° 0.4 mm 5 mps 759 mmHg 63%
    11:00 +33°C° 0.1 mm 5 mps 759 mmHg 60%
    12:00 +34°C° 0.1 mm 6 mps 759 mmHg 56%
    13:00 +35°C° 0.1 mm 6 mps 759 mmHg 53%
    14:00 +35°C° 0 mm 6 mps 758 mmHg 54%
    15:00 +34°C° 0 mm 6 mps 758 mmHg 54%
    16:00 +34°C° 0 mm 6 mps 757 mmHg 55%
    17:00 +33°C° 0 mm 6 mps 757 mmHg 61%
    18:00 +32°C° 0 mm 6 mps 758 mmHg 66%
    19:00 +29°C° 0 mm 5 mps 758 mmHg 72%
    20:00 +29°C° 0.1 mm 5 mps 758 mmHg 75%
    21:00 +29°C° 0.1 mm 5 mps 759 mmHg 77%
    22:00 +28°C° 0.1 mm 4 mps 759 mmHg 80%
    23:00 +28°C° 0.3 mm 4 mps 759 mmHg 81%

    Tomorrow, 21 January, Sunday

    Time Temperature Precipitation Wind Pressure Humidity
    00:00 +28°C° 0.3 mm 4 mps 759 mmHg 83%
    01:00 +27°C° 0.3 mm 4 mps 759 mmHg 84%
    02:00 +27°C° 0.4 mm 4 mps 758 mmHg 85%
    03:00 +27°C° 0.4 mm 4 mps 758 mmHg 86%
    04:00 +27°C° 0.4 mm 3 mps 758 mmHg 88%
    05:00 +27°C° 0.4 mm 4 mps 758 mmHg 88%
    06:00 +27°C° 0.4 mm 4 mps 758 mmHg 88%
    07:00 +27°C° 0.4 mm 4 mps 758 mmHg 88%
    08:00 +28°C° 0.2 mm 4 mps 758 mmHg 79%
    09:00 +30°C° 0.2 mm 5 mps 759 mmHg 71%
    10:00 +33°C° 0.2 mm 5 mps 759 mmHg 62%
    11:00 +34°C° 0.1 mm 6 mps 759 mmHg 58%
    12:00 +35°C° 0.1 mm 6 mps 758 mmHg 53%
    13:00 +36°C° 0.1 mm 6 mps 758 mmHg 49%
    14:00 +35°C° 0 mm 6 mps 757 mmHg 50%
    15:00 +35°C° 0 mm 7 mps 757 mmHg 52%
    16:00 +35°C° 0 mm 7 mps 756 mmHg 53%
    17:00 +33°C° 0 mm 7 mps 756 mmHg 60%
    18:00 +32°C° 0 mm 6 mps 757 mmHg 66%
    19:00 +29°C° 0 mm 6 mps 757 mmHg 73%
    20:00 +29°C° 0 mm 6 mps 757 mmHg 76%
    21:00 +28°C° 0 mm 6 mps 758 mmHg 78%
    22:00 +28°C° 0 mm 6 mps 758 mmHg 81%
    23:00 +28°C° 0.2 mm 6 mps 758 mmHg 82%

    Day after tomorrow, 22 January, Monday

    Time Temperature Precipitation Wind Pressure Humidity
    00:00 +28°C° 0.2 mm 6 mps 758 mmHg 83%
    01:00 +27°C° 0.2 mm 5 mps 757 mmHg 84%
    02:00 +27°C° 0.1 mm 5 mps 757 mmHg 85%
    03:00 +27°C° 0.1 mm 5 mps 756 mmHg 86%
    04:00 +27°C° 0.1 mm 5 mps 756 mmHg 87%
    05:00 +27°C° 0.4 mm 5 mps 756 mmHg 87%
    06:00 +27°C° 0.4 mm 5 mps 757 mmHg 86%
    07:00 +27°C° 0.4 mm 5 mps 757 mmHg 86%
    08:00 +29°C° 0.3 mm 5 mps 757 mmHg 78%
    09:00 +30°C° 0.3 mm 6 mps 758 mmHg 70%
    10:00 +33°C° 0.3 mm 6 mps 758 mmHg 61%
    11:00 +33°C° 0.3 mm 6 mps 758 mmHg 59%
    12:00 +34°C° 0.3 mm 6 mps 758 mmHg 56%
    13:00 +35°C° 0.3 mm 7 mps 757 mmHg 54%
    14:00 +34°C° 0 mm 7 mps 757 mmHg 55%
    15:00 +34°C° 0 mm 7 mps 756 mmHg 57%
    16:00 +34°C° 0 mm 7 mps 755 mmHg 58%
    17:00 +33°C° 0.1 mm 7 mps 756 mmHg 63%
    18:00 +30°C° 0.1 mm 6 mps 756 mmHg 67%
    19:00 +29°C° 0.1 mm 6 mps 756 mmHg 72%
    20:00 +29°C° 0 mm 6 mps 757 mmHg 73%
    21:00 +29°C° 0 mm 6 mps 757 mmHg 74%
    22:00 +29°C° 0 mm 5 mps 758 mmHg 74%
    23:00 +28°C° 0 mm 5 mps 757 mmHg 76%

    23 January, Tuesday

    Time Temperature Precipitation Wind Pressure Humidity
    00:00 +28°C° 0 mm 5 mps 757 mmHg 77%
    01:00 +28°C° 0 mm 5 mps 757 mmHg 78%
    02:00 +28°C° 0 mm 5 mps 756 mmHg 79%
    03:00 +27°C° 0 mm 5 mps 756 mmHg 80%
    04:00 +27°C° 0 mm 5 mps 756 mmHg 82%
    05:00 +27°C° 0 mm 5 mps 756 mmHg 82%
    06:00 +27°C° 0 mm 5 mps 756 mmHg 81%
    07:00 +27°C° 0 mm 5 mps 757 mmHg 81%
    08:00 +29°C° 0.1 mm 5 mps 757 mmHg 73%
    09:00 +32°C° 0.1 mm 6 mps 758 mmHg 64%
    10:00 +34°C° 0.1 mm 6 mps 758 mmHg 55%
    11:00 +34°C° 0.7 mm 6 mps 758 mmHg 54%
    12:00 +35°C° 0.7 mm 6 mps 757 mmHg 53%
    13:00 +35°C° 0.7 mm 6 mps 757 mmHg 52%
    14:00 +35°C° 0.3 mm 6 mps 756 mmHg 53%
    15:00 +34°C° 0.3 mm 6 mps 756 mmHg 53%
    16:00 +34°C° 0.3 mm 6 mps 755 mmHg 54%
    17:00 +33°C° 0 mm 6 mps 756 mmHg 59%
    18:00 +32°C° 0 mm 5 mps 756 mmHg 64%
    19:00 +30°C° 0 mm 5 mps 756 mmHg 69%
    20:00 +29°C° 0.1 mm 5 mps 757 mmHg 72%
    21:00 +29°C° 0.1 mm 4 mps 757 mmHg 75%
    22:00 +28°C° 0.1 mm 4 mps 758 mmHg 78%
    23:00 +28°C° 0.2 mm 4 mps 757 mmHg 79%

    24 January, Wednesday

    Time Temperature Precipitation Wind Pressure Humidity
    00:00 +28°C° 0.2 mm 4 mps 757 mmHg 81%
    01:00 +28°C° 0.2 mm 4 mps 757 mmHg 83%
    02:00 +28°C° 0.1 mm 4 mps 756 mmHg 83%
    03:00 +27°C° 0.1 mm 4 mps 756 mmHg 84%
    04:00 +27°C° 0.1 mm 4 mps 756 mmHg 85%
    05:00 +27°C° 0.1 mm 4 mps 756 mmHg 85%
    06:00 +27°C° 0.1 mm 4 mps 757 mmHg 85%
    07:00 +27°C° 0.1 mm 4 mps 757 mmHg 85%
    08:00 +29°C° 0.2 mm 5 mps 757 mmHg 77%
    09:00 +30°C° 0.2 mm 5 mps 757 mmHg 69%
    10:00 +33°C° 0.2 mm 5 mps 758 mmHg 61%
    11:00 +34°C° 0.1 mm 6 mps 757 mmHg 57%
    12:00 +35°C° 0.1 mm 6 mps 757 mmHg 53%
    13:00 +36°C° 0.1 mm 6 mps 757 mmHg 50%
    14:00 +35°C° 0.3 mm 6 mps 756 mmHg 52%
    15:00 +35°C° 0.3 mm 6 mps 756 mmHg 54%
    16:00 +34°C° 0.3 mm 6 mps 756 mmHg 56%
    17:00 +33°C° 0.1 mm 6 mps 756 mmHg 62%
    18:00 +32°C° 0.1 mm 6 mps 756 mmHg 68%
    19:00 +29°C° 0.1 mm 5 mps 756 mmHg 73%
    20:00 +29°C° 0.1 mm 5 mps 757 mmHg 75%
    21:00 +29°C° 0.1 mm 5 mps 757 mmHg 77%
    22:00 +28°C° 0.1 mm 4 mps 757 mmHg 79%
    23:00 +28°C° 0.2 mm 4 mps 757 mmHg 80%

    25 January, Thursday

    Time Temperature Precipitation Wind Pressure Humidity
    00:00 +28°C° 0.2 mm 4 mps 757 mmHg 81%
    01:00 +28°C° 0.2 mm 4 mps 756 mmHg 82%
    02:00 +28°C° 0.4 mm 4 mps 756 mmHg 82%
    03:00 +27°C° 0.4 mm 4 mps 756 mmHg 83%
    04:00 +27°C° 0.4 mm 4 mps 756 mmHg 83%
    05:00 +27°C° 0.1 mm 4 mps 756 mmHg 83%
    06:00 +27°C° 0.1 mm 4 mps 756 mmHg 83%
    07:00 +27°C° 0.1 mm 4 mps 757 mmHg 83%
    08:00 +29°C° 0.1 mm 4 mps 757 mmHg 76%
    09:00 +30°C° 0.1 mm 4 mps 757 mmHg 69%
    10:00 +32°C° 0.1 mm 5 mps 757 mmHg 62%
    11:00 +33°C° 0 mm 5 mps 757 mmHg 59%
    12:00 +34°C° 0 mm 5 mps 757 mmHg 56%
    13:00 +34°C° 0 mm 5 mps 757 mmHg 53%
    14:00 +34°C° 0 mm 6 mps 756 mmHg 53%
    15:00 +34°C° 0 mm 6 mps 756 mmHg 54%
    16:00 +34°C° 0 mm 6 mps 755 mmHg 54%
    17:00 +33°C° 0 mm 6 mps 756 mmHg 60%
    18:00 +32°C° 0 mm 5 mps 756 mmHg 66%
    19:00 +29°C° 0 mm 5 mps 756 mmHg 72%
    20:00 +29°C° 0 mm 5 mps 756 mmHg 75%
    21:00 +28°C° 0 mm 5 mps 757 mmHg 77%
    22:00 +28°C° 0 mm 4 mps 757 mmHg 80%
    23:00 +28°C° 0 mm 4 mps 757 mmHg 81%
    Show more